Billings, MT

5:42 AM MST on February 12, 2016 (GMT -0700)
Billings Logan International

Weather History for KBIL - March, 2013

Change the Weather History Date:

Wednesday, March 20, 2013

  Actual Average Record
Temperature  
Mean Temperature 38 °F 39 °F  
Max Temperature 57 °F 50 °F 76 °F (1997)
Min Temperature 18 °F 28 °F 0 °F (2002)
Degree Days  
Heating Degree Days 27 26  
Month to date heating degree days 549 574  
Since 1 July heating degree days 5110 5539  
Cooling Degree Days 0 0  
Month to date cooling degree days 0 0  
Year to date cooling degree days 0 0  
Moisture  
Dew Point 17 °F    
Average Humidity 50    
Maximum Humidity 77    
Minimum Humidity 22    
Precipitation  
Precipitation 0.00 in 0.04 in 0.39 in (1941)
Month to date precipitation 0.18 0.60  
Year to date precipitation 1.06 1.56  
Snow  
Snow 0.00 in 0.40 in 2.80 in (2002)
Month to date snowfall 1.9 6.5  
Since 1 July snowfall 34.0 41.0  
Snow Depth 0.00 in    
Sea Level Pressure  
Sea Level Pressure 29.86 in    
Wind  
Wind Speed 5 mph (East)    
Max Wind Speed 15 mph    
Max Gust Speed 17 mph    
Visibility 10 miles    
Events      
T = Trace of Precipitation, MM = Missing Value Source: NWS Daily Summary

Daily Weather History Graph

Daily Weather History Graph

Search for Another Location

Airport or City:

Trip Planner

Search our weather history database for the weather conditions in past years. The results will help you decide how hot, cold, wet, or windy it might be!

Date:

Astronomy

Mar. 20, 2013 Rise Set
Actual Time 7:16 AM MDT 7:27 PM MDT
Civil Twilight 6:46 AM MDT 7:56 PM MDT
Nautical Twilight 6:12 AM MDT 8:31 PM MDT
Astronomical Twilight 5:36 AM MDT 9:07 PM MDT
Moon 12:48 PM MDT (3/20) 3:15 AM MDT (3/20)
Length of Visible Light 13h 09m
Length of Day
12h 10m
First Quarter, 60% of the Moon is Illuminated
Mar 20
First Quarter
Mar 27
Full
Apr 2
Last Quarter
Apr 10
New
Apr 18
First Quarter

Hourly Weather History & Observations

Time (MDT) Temp. Windchill Dew Point Humidity Pressure Visibility Wind Dir Wind Speed Gust Speed Precip Events Conditions
12:53 AM 25.0 °F 17.1 °F 17.1 °F 72% 30.27 in 10.0 mi SSE 6.9 mph - N/A   Clear
1:53 AM 24.1 °F 19.7 °F 16.0 °F 71% 30.22 in 10.0 mi ENE 3.5 mph - N/A   Clear
2:53 AM 23.0 °F - 15.1 °F 72% 30.19 in 10.0 mi Calm Calm - N/A   Clear
3:53 AM 21.9 °F 15.7 °F 15.1 °F 75% 30.15 in 10.0 mi NNE 4.6 mph - N/A   Clear
4:53 AM 19.0 °F - 14.0 °F 81% 30.12 in 10.0 mi Calm Calm - N/A   Clear
5:53 AM 19.9 °F - 14.0 °F 78% 30.08 in 10.0 mi Calm Calm - N/A   Clear
6:53 AM 19.9 °F 13.4 °F 14.0 °F 78% 30.04 in 10.0 mi North 4.6 mph - N/A   Partly Cloudy
7:53 AM 21.9 °F 14.5 °F 15.1 °F 75% 30.01 in 10.0 mi NNE 5.8 mph - N/A   Partly Cloudy
8:53 AM 25.0 °F 19.3 °F 16.0 °F 69% 29.99 in 10.0 mi North 4.6 mph - N/A   Partly Cloudy
9:53 AM 27.0 °F 21.6 °F 18.0 °F 69% 29.96 in 10.0 mi NNE 4.6 mph - N/A   Scattered Clouds
10:53 AM 33.1 °F 27.7 °F 17.1 °F 52% 29.91 in 10.0 mi NNE 5.8 mph - N/A   Scattered Clouds
11:53 AM 37.9 °F 34.4 °F 18.0 °F 45% 29.88 in 10.0 mi NE 4.6 mph - N/A   Mostly Cloudy
12:53 PM 44.1 °F - 17.1 °F 34% 29.83 in 10.0 mi Calm Calm - N/A   Scattered Clouds
1:53 PM 50.0 °F - 17.1 °F 27% 29.78 in 10.0 mi ESE 5.8 mph - N/A   Mostly Cloudy
2:53 PM 51.1 °F - 16.0 °F 25% 29.75 in 10.0 mi East 6.9 mph - N/A   Overcast
3:53 PM 53.1 °F - 16.0 °F 23% 29.71 in 10.0 mi East 6.9 mph - N/A   Mostly Cloudy
4:53 PM 53.6 °F - 19.4 °F 26% 29.65 in 10.0 mi East 5.8 mph - N/A   Scattered Clouds
5:53 PM 55.9 °F - 19.0 °F 24% 29.67 in 10.0 mi Calm Calm - N/A   Scattered Clouds
6:53 PM 53.1 °F - 19.9 °F 27% 29.65 in 10.0 mi ESE 9.2 mph - N/A   Scattered Clouds
7:53 PM 48.0 °F - 19.9 °F 33% 29.64 in 10.0 mi ESE 9.2 mph - N/A   Partly Cloudy
8:53 PM 46.0 °F 42.5 °F 21.0 °F 37% 29.62 in 10.0 mi SSE 6.9 mph - N/A   Clear
9:53 PM 45.0 °F 41.2 °F 21.0 °F 39% 29.62 in 10.0 mi SSE 6.9 mph - N/A   Clear
10:53 PM 46.9 °F - 21.0 °F 36% 29.59 in 10.0 mi South 3.5 mph - N/A   Clear
11:53 PM 44.1 °F 40.1 °F 21.9 °F 42% 29.55 in 10.0 mi South 6.9 mph - N/A   Clear